Home   Weather   Lowell   Past weeks
Flag for USA

Past Weather in Lowell, Massachusetts, USA — Yesterday and Last 2 Weeks

Now
70 °F

Sunny.


Feels Like: 69 °F
Forecast: 83 / 67 °F
Wind: No wind

Location: Hanscom Field

Current Time: Jul 22, 2019 at 6:26:32 am

Latest Report: Jul 22, 2019 at 5:56 am


Visibility: 10 mi

Pressure: 29.86 "Hg

Humidity: 84%

Dew Point: 65 °F

Location of LowellLocation

Past Weather in Lowell — Graph

°F

Lowell Temperature Yesterday

Maximum temperature yesterday: 97 °F (at 2:56 pm)
Minimum temperature yesterday: 79 °F (at 11:56 pm)
Average temperature yesterday: 87 °F

High & Low Weather Summary for the Past Weeks

 TemperatureHumidityPressure
High97 °F (Jul 20, 4:56 pm)88% (Jul 12, 7:56 am)30.10 "Hg (Jul 12, 7:56 am)
Low57 °F (Jul 8, 5:56 am)26% (Jul 9, 3:56 pm)29.66 "Hg (Jul 12, 2:03 pm)
Average78 °F63%29.90 "Hg
* Reported Jul 7 4:56 am — Jul 22 4:56 am, Lowell. Weather by CustomWeather, © 2019

Note: Actual official high and low records may vary slightly from our data, if they occured in-between our weather recording intervals... More about our weather records

Advertising

Lowell Weather History for the Previous 24 Hours

Scroll right to see more
 ConditionsComfort  
Time TempWeatherWind HumidityBarometerVisibility
4:56 am
Mon, Jul 22
72 °FClear.3 mph81%29.86 "Hg10 mi
3:56 am73 °FPassing clouds.No wind79%29.85 "Hg10 mi
2:56 am74 °FClear.3 mph79%29.85 "Hg10 mi
1:56 am75 °FClear.No wind76%29.84 "Hg10 mi
12:56 am78 °FClear.No wind69%29.83 "Hg10 mi
11:56 pm
Sun, Jul 21
79 °FClear.3 mph67%29.82 "Hg10 mi
10:56 pm80 °FClear.5 mph64%29.81 "Hg10 mi
9:56 pm84 °FClear.No wind55%29.80 "Hg10 mi
8:56 pm87 °FClear.7 mph48%29.79 "Hg10 mi
7:56 pm89 °FSunny.7 mph45%29.77 "Hg10 mi
6:56 pm92 °FSunny.9 mph44%29.75 "Hg10 mi
5:56 pm95 °FSunny.9 mph41%29.73 "Hg10 mi
4:56 pm96 °FSunny.13 mph38%29.72 "Hg10 mi
3:56 pm96 °FPassing clouds.13 mph38%29.71 "Hg10 mi
2:56 pm97 °FPassing clouds.15 mph37%29.71 "Hg10 mi
1:56 pm95 °FScattered clouds.16 mph44%29.70 "Hg10 mi
12:56 pm95 °FScattered clouds.20 mph44%29.70 "Hg10 mi
11:56 am92 °FSunny.15 mph51%29.72 "Hg10 mi
10:56 am89 °FScattered clouds.13 mph55%29.74 "Hg10 mi
9:56 am87 °FPartly sunny.8 mph59%29.75 "Hg10 mi
8:56 am88 °FScattered clouds.12 mph57%29.75 "Hg10 mi
7:56 am86 °FSunny.8 mph61%29.74 "Hg10 mi
6:56 am82 °FScattered clouds.6 mph65%29.73 "Hg10 mi
Weather by CustomWeather, © 2019

See weather overview